[keps] orb09365.amsat
Ray Hoad
ray.hoad at mypbmail.com
Thu Dec 31 19:35:44 PST 2009
SB KEPS @ AMSAT $ORB09365.O
Orbital Elements 09365.OSCAR
HR AMSAT ORBITAL ELEMENTS FOR OSCAR SATELLITES
FROM WA5QGD FORT WORTH,TX December 31, 2009
Send Subscribe/unsubscribe to KEPS at http://www.amsat.org/mailman/listinfo/keps
BID: ORB09365.O
TO ALL RADIO AMATEURS BT
Satellite: AO-07
Catalog number: 07530
Epoch time: 09364.57197685
Element set: 0668
Inclination: 101.4129 deg
RA of node: 021.9224 deg
Eccentricity: 0.0011839
Arg of perigee: 244.6271 deg
Mean anomaly: 115.3573 deg
Mean motion: 12.53577289 rev/day
Decay rate: -2.7e-07 rev/day^2
Epoch rev: 60732
Checksum: 311
Satellite: FO-29
Catalog number: 24278
Epoch time: 09364.64140698
Element set: 213
Inclination: 098.5226 deg
RA of node: 211.9794 deg
Eccentricity: 0.0350537
Arg of perigee: 200.9494 deg
Mean anomaly: 157.6974 deg
Mean motion: 13.52947278 rev/day
Decay rate: 7.7e-07 rev/day^2
Epoch rev: 66031
Checksum: 344
Satellite: SO-33
Catalog number: 25509
Epoch time: 09364.46297597
Element set: 0620
Inclination: 031.4345 deg
RA of node: 022.6253 deg
Eccentricity: 0.0354757
Arg of perigee: 254.6178 deg
Mean anomaly: 101.4984 deg
Mean motion: 14.28275760 rev/day
Decay rate: 5.4e-07 rev/day^2
Epoch rev: 58391
Checksum: 325
Satellite: RS-22
Catalog number: 27939
Epoch time: 09364.64738931
Element set: 0976
Inclination: 097.9158 deg
RA of node: 232.0305 deg
Eccentricity: 0.0012781
Arg of perigee: 229.7704 deg
Mean anomaly: 130.2387 deg
Mean motion: 14.63369441 rev/day
Decay rate: 2.7e-07 rev/day^2
Epoch rev: 33430
Checksum: 321
Satellite: VO-52
Catalog number: 28650
Epoch time: 09364.77853179
Element set: 399
Inclination: 097.7184 deg
RA of node: 059.5793 deg
Eccentricity: 0.0028304
Arg of perigee: 106.8638 deg
Mean anomaly: 253.5697 deg
Mean motion: 14.81660286 rev/day
Decay rate: -1.68e-06 rev/day^2
Epoch rev: 25175
Checksum: 366
Satellite: SO-67
Catalog number: 35870
Epoch time: 09365.82028855
Element set: 310
Inclination: 097.3582 deg
RA of node: 053.8439 deg
Eccentricity: 0.0010273
Arg of perigee: 288.5340 deg
Mean anomaly: 201.8154 deg
Mean motion: 15.22903423 rev/day
Decay rate: 3.70e-06 rev/day^2
Epoch rev: 1599
Checksum: 306
Satellite: HO-68
Catalog number: 36122
Epoch time: 09365.80218631
Element set: 49
Inclination: 100.4965 deg
RA of node: 062.7636 deg
Eccentricity: 0.0007713
Arg of perigee: 359.4628 deg
Mean anomaly: 000.6474 deg
Mean motion: 13.16279923 rev/day
Decay rate: -4.5e-07 rev/day^2
Epoch rev: 219
Checksum: 300
/EX
SB KEPS @ AMSAT $ORB09365.D
Orbital Elements 09365.MICROS
HR AMSAT ORBITAL ELEMENTS FOR THE MICROSATS
FROM WA5QGD FORT WORTH,TX December 31, 2009
Send Subscribe/unsubscribe to KEPS at http://www.amsat.org/mailman/listinfo/keps
BID: ORB09365.D
TO ALL RADIO AMATEURS BT
Satellite: UO-11
Catalog number: 14781
Epoch time: 09364.71991037
Element set: 139
Inclination: 098.0816 deg
RA of node: 050.7337 deg
Eccentricity: 0.0010103
Arg of perigee: 064.3413 deg
Mean anomaly: 295.8830 deg
Mean motion: 14.79758105 rev/day
Decay rate: 2.49e-06 rev/day^2
Epoch rev: 38689
Checksum: 319
Satellite: AO-16
Catalog number: 20439
Epoch time: 09365.82681778
Element set: 786
Inclination: 098.3078 deg
RA of node: 325.5347 deg
Eccentricity: 0.0010318
Arg of perigee: 307.5198 deg
Mean anomaly: 052.5051 deg
Mean motion: 14.31844148 rev/day
Decay rate: 3.1e-07 rev/day^2
Epoch rev: 4143
Checksum: 309
Satellite: LO-19
Catalog number: 20442
Epoch time: 09364.87340273
Element set: 0696
Inclination: 098.2707 deg
RA of node: 331.1086 deg
Eccentricity: 0.0011023
Arg of perigee: 304.0034 deg
Mean anomaly: 056.0134 deg
Mean motion: 14.32077453 rev/day
Decay rate: 4.7e-07 rev/day^2
Epoch rev: 04146
Checksum: 267
Satellite: AO-27
Catalog number: 22825
Epoch time: 09364.51154467
Element set: 0422
Inclination: 098.4651 deg
RA of node: 312.0175 deg
Eccentricity: 0.0009065
Arg of perigee: 050.3680 deg
Mean anomaly: 309.8287 deg
Mean motion: 14.29282645 rev/day
Decay rate: 5.9e-07 rev/day^2
Epoch rev: 84795
Checksum: 323
Satellite: IO-26
Catalog number: 22826
Epoch time: 09364.88702468
Element set: 155
Inclination: 098.4573 deg
RA of node: 313.0494 deg
Eccentricity: 0.0009586
Arg of perigee: 044.8842 deg
Mean anomaly: 315.3127 deg
Mean motion: 14.29536253 rev/day
Decay rate: 8.0e-08 rev/day^2
Epoch rev: 84811
Checksum: 326
Satellite: GO-32
Catalog number: 25397
Epoch time: 09364.78919322
Element set: 75
Inclination: 098.3184 deg
RA of node: 016.4917 deg
Eccentricity: 0.0002004
Arg of perigee: 058.6726 deg
Mean anomaly: 301.4645 deg
Mean motion: 14.23169312 rev/day
Decay rate: 1.25e-06 rev/day^2
Epoch rev: 59609
Checksum: 309
Satellite: NO-44
Catalog number: 26931
Epoch time: 09364.80784227
Element set: 0351
Inclination: 067.0530 deg
RA of node: 277.7861 deg
Eccentricity: 0.0006950
Arg of perigee: 265.2494 deg
Mean anomaly: 094.7809 deg
Mean motion: 14.29576259 rev/day
Decay rate: -3.46e-06 rev/day^2
Epoch rev: 43068
Checksum: 341
Satellite: SO-50
Catalog number: 27607
Epoch time: 09364.87362599
Element set: 67
Inclination: 064.5557 deg
RA of node: 147.7253 deg
Eccentricity: 0.0044002
Arg of perigee: 150.8673 deg
Mean anomaly: 209.4889 deg
Mean motion: 14.71486295 rev/day
Decay rate: 4.6e-07 rev/day^2
Epoch rev: 37761
Checksum: 344
Satellite: CO-55
Catalog number: 27844
Epoch time: 09364.63166874
Element set: 0747
Inclination: 098.7107 deg
RA of node: 011.0153 deg
Eccentricity: 0.0009484
Arg of perigee: 301.4527 deg
Mean anomaly: 058.5718 deg
Mean motion: 14.20675736 rev/day
Decay rate: 5.8e-07 rev/day^2
Epoch rev: 33715
Checksum: 324
Satellite: CO-57
Catalog number: 27848
Epoch time: 09364.70733246
Element set: 696
Inclination: 098.7177 deg
RA of node: 010.1636 deg
Eccentricity: 0.0009041
Arg of perigee: 305.0240 deg
Mean anomaly: 055.0087 deg
Mean motion: 14.20472537 rev/day
Decay rate: 3.7e-07 rev/day^2
Epoch rev: 33712
Checksum: 297
Satellite: AO-51
Catalog number: 28375
Epoch time: 09365.55969138
Element set: 568
Inclination: 098.0532 deg
RA of node: 003.6820 deg
Eccentricity: 0.0083014
Arg of perigee: 246.4054 deg
Mean anomaly: 112.8404 deg
Mean motion: 14.40664041 rev/day
Decay rate: 7.0e-08 rev/day^2
Epoch rev: 28937
Checksum: 304
Satellite: CO-56
Catalog number: 28941
Epoch time: 09297.68475575
Element set: 556
Inclination: 098.0955 deg
RA of node: 138.9518 deg
Eccentricity: 0.0011688
Arg of perigee: 319.8691 deg
Mean anomaly: 040.7485 deg
Mean motion: 16.46998778 rev/day
Decay rate: 1.4491492e-01 rev/day^2
Epoch rev: 20790
Checksum: 407
Satellite: GENESAT1
Catalog number: 29655
Epoch time: 09364.45987078
Element set: 0910
Inclination: 040.0228 deg
RA of node: 029.0181 deg
Eccentricity: 0.0004812
Arg of perigee: 192.4725 deg
Mean anomaly: 167.5974 deg
Mean motion: 15.71605301 rev/day
Decay rate: 2.0583e-04 rev/day^2
Epoch rev: 17329
Checksum: 305
Satellite: CP3
Catalog number: 31129
Epoch time: 09365.71873012
Element set: 437
Inclination: 097.9643 deg
RA of node: 049.0597 deg
Eccentricity: 0.0103121
Arg of perigee: 033.7062 deg
Mean anomaly: 327.0630 deg
Mean motion: 14.52195682 rev/day
Decay rate: 1.04e-06 rev/day^2
Epoch rev: 14355
Checksum: 282
Satellite: CO-65
Catalog number: 32785
Epoch time: 09365.87999280
Element set: 565
Inclination: 097.9198 deg
RA of node: 067.9450 deg
Eccentricity: 0.0015925
Arg of perigee: 107.1437 deg
Mean anomaly: 253.1556 deg
Mean motion: 14.81563629 rev/day
Decay rate: 3.42e-06 rev/day^2
Epoch rev: 9071
Checksum: 354
Satellite: KKS-1
Catalog number: 33493
Epoch time: 09365.75546399
Element set: 74
Inclination: 098.0699 deg
RA of node: 119.0316 deg
Eccentricity: 0.0019364
Arg of perigee: 325.9050 deg
Mean anomaly: 034.0930 deg
Mean motion: 14.80810979 rev/day
Decay rate: 3.35e-06 rev/day^2
Epoch rev: 5070
Checksum: 313
Satellite: SOHLA-1
Catalog number: 33496
Epoch time: 09365.85832477
Element set: 988
Inclination: 098.0485 deg
RA of node: 112.2396 deg
Eccentricity: 0.0006953
Arg of perigee: 024.1817 deg
Mean anomaly: 335.9716 deg
Mean motion: 14.69461324 rev/day
Decay rate: -7.9e-07 rev/day^2
Epoch rev: 5030
Checksum: 332
/EX
SB KEPS @ AMSAT $ORB09365.W
Orbital Elements 09365.WEATHER
HR AMSAT ORBITAL ELEMENTS FOR WEATHER SATELLITES
FROM WA5QGD FORT WORTH,TX December 31, 2009
Send Subscribe/unsubscribe to KEPS at http://www.amsat.org/mailman/listinfo/keps
BID: ORB09365.W
TO ALL RADIO AMATEURS BT
Satellite: NOAA-10
Catalog number: 16969
Epoch time: 09365.55166629
Element set: 899
Inclination: 098.6743 deg
RA of node: 030.9472 deg
Eccentricity: 0.0012318
Arg of perigee: 344.8647 deg
Mean anomaly: 015.2162 deg
Mean motion: 14.27402228 rev/day
Decay rate: -1.17e-06 rev/day^2
Epoch rev: 21166
Checksum: 319
Satellite: NOAA-11
Catalog number: 19531
Epoch time: 09365.22145436
Element set: 911
Inclination: 098.7772 deg
RA of node: 092.0761 deg
Eccentricity: 0.0010826
Arg of perigee: 268.1188 deg
Mean anomaly: 091.8740 deg
Mean motion: 14.14912062 rev/day
Decay rate: 2.05e-06 rev/day^2
Epoch rev: 9738
Checksum: 301
Satellite: NOAA-12
Catalog number: 21263
Epoch time: 09365.46990268
Element set: 394
Inclination: 098.7696 deg
RA of node: 013.6154 deg
Eccentricity: 0.0011638
Arg of perigee: 296.4850 deg
Mean anomaly: 063.5139 deg
Mean motion: 14.25609058 rev/day
Decay rate: 2.3e-07 rev/day^2
Epoch rev: 96850
Checksum: 329
Satellite: MET-3/5
Catalog number: 21655
Epoch time: 09364.90907451
Element set: 0705
Inclination: 082.5576 deg
RA of node: 067.5343 deg
Eccentricity: 0.0014622
Arg of perigee: 053.0209 deg
Mean anomaly: 307.2258 deg
Mean motion: 13.17023520 rev/day
Decay rate: 5.1e-07 rev/day^2
Epoch rev: 88352
Checksum: 285
Satellite: MET-2/21
Catalog number: 22782
Epoch time: 09364.58375761
Element set: 655
Inclination: 082.5470 deg
RA of node: 026.2078 deg
Eccentricity: 0.0022948
Arg of perigee: 152.2325 deg
Mean anomaly: 208.0073 deg
Mean motion: 13.83639847 rev/day
Decay rate: -8.0e-08 rev/day^2
Epoch rev: 82476
Checksum: 322
